Date String (YYYY-MM-DD hh:mm:ss) UTC,Instrument flags,Ambient pressure (hPa),Sample flow (lpm),Bypass flow (lpm),Sample temperature (°C),Ambient temperature (°C),ASC tube jacket temperature (°C),LED temperature (°C),Box temperature (°C),Sample RH (%),Span deviation,Mass concentration (μg/m³),Mass concentration (μg/m³),Mass concentration (μg/m³)
DateTimeUTC,F1_M11,P_M11,Q1_M11,Q2_M11,T1_M11,T2_M11,T3_M11,T4_M11,T5_M11,U1_M11,ZSPAN_M11,X0_M11,X2_M11,X1_M11
2021-10-15 04:00:00,,0827.7,5.00,0.00,24.9,24.0,00.0,33.9,26.7,19.4,0000.2,0011.89,0007.73,0007.20
2021-10-15 04:01:00,,0827.7,5.00,0.00,24.9,24.0,00.0,33.9,26.7,19.4,0000.4,0011.63,0007.74,0007.22
2021-10-15 04:02:00,,0827.7,5.00,0.00,24.9,24.0,00.0,33.9,26.7,19.4,0000.8,0011.57,0007.74,0007.23
2021-10-15 04:03:00,,0827.7,5.00,0.00,24.9,24.0,00.0,33.9,26.7,19.4,0001.2,0011.54,0007.73,0007.23
2021-10-15 04:04:00,,0827.8,5.01,0.00,24.9,24.0,00.0,33.9,26.7,19.3,0000.7,0011.60,0007.75,0007.24
2021-10-15 04:05:00,,0827.7,5.00,0.00,24.9,24.0,00.0,33.9,26.7,19.3,0000.1,0011.94,0007.75,0007.24
2021-10-15 04:06:00,,0827.8,5.00,0.00,24.9,24.0,00.0,33.9,26.8,19.2,-000.1,0012.13,0007.73,0007.23
2021-10-15 04:07:00,,0827.7,5.01,0.00,24.9,24.0,00.0,33.9,26.8,19.2,0000.0,0012.14,0007.75,0007.22
2021-10-15 04:08:00,,0827.7,5.01,0.00,24.9,24.1,00.0,33.9,26.8,19.2,0000.0,0012.12,0007.75,0007.24
2021-10-15 04:09:00,,0827.7,4.99,0.00,24.9,24.1,00.0,34.0,26.8,19.3,0000.0,0012.37,0007.72,0007.26
2021-10-15 04:10:00,,0827.7,5.00,0.00,24.9,24.1,00.0,34.0,26.8,19.2,0000.0,0012.55,0007.74,0007.28
2021-10-15 04:11:00,,0827.7,5.00,0.00,24.9,24.1,00.0,34.0,26.8,19.1,0000.0,0011.92,0007.71,0007.26
2021-10-15 04:12:00,,0827.7,5.01,0.00,24.9,24.1,00.0,34.0,26.8,19.1,0000.0,0011.89,0007.68,0007.23
2021-10-15 04:13:00,,0827.7,4.98,0.00,24.9,24.1,00.0,34.0,26.8,19.1,0000.5,0012.51,0007.68,0007.22
2021-10-15 04:14:00,,0827.7,5.00,0.00,24.9,24.1,00.0,34.0,26.8,19.1,0000.0,0012.59,0007.66,0007.20
2021-10-15 04:15:00,,0827.7,4.98,0.00,24.9,24.1,00.0,34.0,26.8,19.0,0000.5,0012.55,0007.62,0007.16
2021-10-15 04:16:00,,0827.7,4.99,0.00,24.9,24.1,00.0,34.0,26.8,19.0,0001.3,0012.38,0007.57,0007.13
2021-10-15 04:17:00,,0827.7,5.00,0.00,24.9,24.1,00.0,34.0,26.8,19.0,0002.0,0012.44,0007.54,0007.11
2021-10-15 04:18:00,,0827.7,5.00,0.00,25.0,24.1,00.0,34.0,26.8,19.0,0001.7,0012.50,0007.49,0007.10
2021-10-15 04:19:00,,0827.8,4.99,0.00,25.0,24.1,00.0,34.0,26.8,19.0,0002.1,0012.57,0007.48,0007.07
2021-10-15 04:20:00,,0827.8,5.01,0.00,25.0,24.1,00.0,34.0,26.8,19.0,0002.6,0012.27,0007.47,0007.03
2021-10-15 04:21:00,,0827.8,5.01,0.00,25.0,24.1,00.0,34.0,26.8,19.0,0001.9,0011.97,0007.42,0007.01
2021-10-15 04:22:00,,0827.8,4.99,0.00,25.0,24.1,00.0,34.0,26.8,19.0,0002.0,0011.85,0007.40,0007.01
2021-10-15 04:23:00,,0827.8,4.99,0.00,25.0,24.1,00.0,34.0,26.8,19.0,0001.8,0011.76,0007.39,0007.02
2021-10-15 04:24:00,,0827.8,5.01,0.00,25.0,24.1,00.0,34.0,26.8,19.0,0001.3,0011.22,0007.38,0007.02
2021-10-15 04:25:00,,0827.8,5.00,0.00,25.0,24.1,00.0,34.0,26.8,19.0,0001.8,0011.10,0007.39,0007.02
2021-10-15 04:26:00,,0827.8,5.01,0.00,25.0,24.1,00.0,34.0,26.8,19.0,0000.9,0011.12,0007.41,0007.05
2021-10-15 04:27:00,,0827.8,5.00,0.00,25.0,24.1,00.0,34.0,26.8,19.0,0000.4,0011.07,0007.44,0007.07
2021-10-15 04:28:00,,0827.8,4.99,0.00,25.0,24.1,00.0,34.0,26.8,19.0,0001.2,0010.76,0007.46,0007.08
2021-10-15 04:29:00,,0827.8,5.00,0.00,25.0,24.1,00.0,34.0,26.8,19.0,0000.9,0010.39,0007.47,0007.09
2021-10-15 04:30:00,,0827.8,5.00,0.00,25.0,24.0,00.0,34.0,26.8,19.0,0000.9,0010.65,0007.46,0007.09
2021-10-15 04:31:00,,0827.9,4.99,0.00,25.0,24.0,00.0,34.1,26.8,19.0,0001.1,0010.68,0007.46,0007.11
2021-10-15 04:32:00,,0827.8,5.01,0.00,24.9,24.0,00.0,34.0,26.7,19.0,0001.1,0010.75,0007.46,0007.10
2021-10-15 04:33:00,,0827.9,5.01,0.00,24.9,24.0,00.0,34.0,26.7,19.0,0000.2,0011.30,0007.48,0007.11
2021-10-15 04:34:00,,0827.8,4.99,0.00,24.9,24.0,00.0,34.0,26.7,19.0,0000.0,0011.41,0007.52,0007.11
2021-10-15 04:35:00,,0827.9,5.01,0.00,24.9,24.0,00.0,34.0,26.7,19.0,0000.6,0011.42,0007.53,0007.10
2021-10-15 04:36:00,,0827.9,5.00,0.00,24.9,24.0,00.0,34.0,26.7,19.0,0000.5,0011.37,0007.50,0007.08
2021-10-15 04:37:00,,0827.9,5.01,0.00,24.9,24.0,00.0,34.0,26.8,18.9,0000.1,0011.26,0007.45,0007.06
2021-10-15 04:38:00,,0827.8,4.99,0.00,24.9,24.0,00.0,34.0,26.8,18.9,-000.0,0011.15,0007.41,0007.03
2021-10-15 04:39:00,,0827.8,5.00,0.00,24.9,24.0,00.0,34.0,26.8,18.9,0000.0,0011.09,0007.37,0007.00
2021-10-15 04:40:00,,0827.9,5.00,0.00,24.9,24.0,00.0,34.0,26.8,18.9,0000.0,0011.05,0007.35,0006.98
2021-10-15 04:41:00,,0827.9,5.00,0.00,24.9,24.0,00.0,34.0,26.8,18.8,0000.0,0010.75,0007.33,0006.96
2021-10-15 04:42:00,,0827.9,5.00,0.00,25.0,24.0,00.0,34.0,26.8,18.8,0000.0,0010.92,0007.32,0006.94
2021-10-15 04:43:00,,0827.9,5.00,0.00,25.0,24.0,00.0,34.0,26.8,18.8,0000.3,0010.99,0007.32,0006.92
2021-10-15 04:44:00,,0827.9,5.01,0.00,24.9,24.0,00.0,34.0,26.7,18.8,0001.2,0010.49,0007.31,0006.89
2021-10-15 04:45:00,,0827.9,5.00,0.00,24.9,24.0,00.0,34.0,26.8,18.8,0001.9,0010.35,0007.26,0006.86
2021-10-15 04:46:00,,0827.9,5.00,0.00,24.9,24.0,00.0,34.0,26.7,18.8,0002.1,0010.24,0007.22,0006.85
2021-10-15 04:47:00,,0827.9,5.01,0.00,24.9,24.0,00.0,34.0,26.7,18.8,0001.9,0010.24,0007.21,0006.84
2021-10-15 04:48:00,,0827.9,4.98,0.00,24.9,24.0,00.0,34.0,26.7,18.8,0001.4,0010.28,0007.22,0006.84
2021-10-15 04:49:00,,0827.8,5.00,0.00,24.9,24.0,00.0,34.0,26.7,18.8,0001.7,0010.27,0007.22,0006.84
2021-10-15 04:50:00,,0827.9,4.99,0.00,24.9,24.0,00.0,34.0,26.7,18.8,0001.3,0010.30,0007.21,0006.84
2021-10-15 04:51:00,,0827.9,5.01,0.00,24.9,23.9,00.0,34.0,26.7,18.8,0000.9,0010.34,0007.21,0006.83
2021-10-15 04:52:00,,0827.9,4.98,0.00,24.9,23.9,00.0,34.0,26.7,18.8,0000.5,0010.30,0007.18,0006.82
2021-10-15 04:53:00,,0828.0,5.01,0.00,24.9,23.9,00.0,34.0,26.7,18.7,0000.5,0010.05,0007.16,0006.81
2021-10-15 04:54:00,,0828.0,5.00,0.00,24.9,24.0,00.0,34.0,26.7,18.7,0000.8,0009.87,0007.14,0006.80
2021-10-15 04:55:00,,0828.0,5.00,0.00,24.9,24.0,00.0,34.0,26.7,18.7,0000.8,0009.89,0007.15,0006.80
2021-10-15 04:56:00,,0827.9,5.01,0.00,24.9,24.0,00.0,34.0,26.7,18.7,0000.7,0009.89,0007.15,0006.79
2021-10-15 04:57:00,,0828.0,5.00,0.00,24.9,24.0,00.0,34.0,26.7,18.7,0000.8,0009.88,0007.14,0006.78
2021-10-15 04:58:00,,0828.0,5.00,0.00,24.9,24.0,00.0,34.0,26.7,18.7,0000.8,0009.87,0007.10,0006.77
2021-10-15 04:59:00,,0828.1,4.99,0.00,24.9,24.0,00.0,34.0,26.7,18.7,0001.2,0009.83,0007.09,0006.78
